When you browse on this site, cookies collect data to enhance your experience and personalize the content and advertising you see.
Visit our Privacy Policy to learn more. By continuing to use the site, you agree to this use of cookies and data.
  • In Hungary
  • List of Countries
  • For 7 days
  • Water Temperature
  • Weather Map
  • News
  • Weather Widgets
  • user-avatar
    Login

    Hourly Weather Rankweil

    Today, 2 April, Thursday

    Time Temperature Precipitation Wind Pressure Humidity
    00:00 +2°C° 0 mm 1 mps 718 mmHg 82%
    01:00 -1°C° 0 mm 2 mps 717 mmHg 82%
    02:00 -1°C° 0 mm 2 mps 717 mmHg 80%
    03:00 -1°C° 0 mm 2 mps 717 mmHg 78%
    04:00 +1°C° 0 mm 1 mps 717 mmHg 76%
    05:00 +1°C° 0 mm 1 mps 717 mmHg 74%
    06:00 +2°C° 0 mm 1 mps 717 mmHg 71%
    07:00 +3°C° 0 mm 1 mps 717 mmHg 68%
    08:00 +5°C° 0 mm 1 mps 716 mmHg 64%
    09:00 +8°C° 0 mm 1 mps 716 mmHg 61%
    10:00 +9°C° 0 mm 0 mps 716 mmHg 58%
    11:00 +10°C° 0 mm 0 mps 715 mmHg 57%
    12:00 +12°C° 0 mm 1 mps 715 mmHg 55%
    13:00 +12°C° 0 mm 1 mps 715 mmHg 54%
    14:00 +12°C° 0 mm 1 mps 715 mmHg 56%
    15:00 +12°C° 0 mm 1 mps 714 mmHg 58%
    16:00 +12°C° 0 mm 1 mps 714 mmHg 60%
    17:00 +10°C° 0 mm 1 mps 714 mmHg 68%
    18:00 +8°C° 0 mm 1 mps 714 mmHg 76%
    19:00 +6°C° 0 mm 1 mps 714 mmHg 84%
    20:00 +6°C° 0 mm 1 mps 715 mmHg 85%
    21:00 +6°C° 0 mm 1 mps 715 mmHg 87%
    22:00 +6°C° 0 mm 1 mps 716 mmHg 88%
    23:00 +6°C° 0 mm 1 mps 716 mmHg 90%

    Tomorrow, 3 April, Friday

    Time Temperature Precipitation Wind Pressure Humidity
    00:00 +5°C° 0 mm 1 mps 716 mmHg 92%
    01:00 +4°C° 0 mm 0 mps 717 mmHg 94%
    02:00 +4°C° 0.1 mm 0 mps 717 mmHg 95%
    03:00 +4°C° 0.1 mm 0 mps 716 mmHg 95%
    04:00 +4°C° 0.1 mm 0 mps 716 mmHg 96%
    05:00 +4°C° 0 mm 0 mps 717 mmHg 96%
    06:00 +4°C° 0 mm 0 mps 717 mmHg 95%
    07:00 +4°C° 0 mm 0 mps 717 mmHg 94%
    08:00 +5°C° 0 mm 0 mps 717 mmHg 90%
    09:00 +7°C° 0 mm 1 mps 717 mmHg 87%
    10:00 +8°C° 0 mm 1 mps 717 mmHg 83%
    11:00 +9°C° 0 mm 1 mps 717 mmHg 79%
    12:00 +10°C° 0 mm 1 mps 717 mmHg 74%
    13:00 +11°C° 0 mm 1 mps 717 mmHg 70%
    14:00 +11°C° 0 mm 1 mps 717 mmHg 70%
    15:00 +10°C° 0 mm 1 mps 717 mmHg 70%
    16:00 +10°C° 0 mm 1 mps 717 mmHg 70%
    17:00 +9°C° 0 mm 1 mps 717 mmHg 74%
    18:00 +7°C° 0 mm 0 mps 718 mmHg 78%
    19:00 +6°C° 0 mm 0 mps 718 mmHg 82%
    20:00 +5°C° 0 mm 0 mps 719 mmHg 83%
    21:00 +5°C° 0 mm 0 mps 719 mmHg 84%
    22:00 +5°C° 0 mm 1 mps 720 mmHg 85%
    23:00 +5°C° 0 mm 1 mps 720 mmHg 85%

    Day after tomorrow, 4 April, Saturday

    Time Temperature Precipitation Wind Pressure Humidity
    00:00 +4°C° 0 mm 1 mps 720 mmHg 85%
    01:00 +4°C° 0 mm 1 mps 721 mmHg 86%
    02:00 +3°C° 0 mm 1 mps 721 mmHg 86%
    03:00 +3°C° 0 mm 1 mps 721 mmHg 85%
    04:00 +3°C° 0 mm 1 mps 721 mmHg 85%
    05:00 +3°C° 0 mm 1 mps 721 mmHg 82%
    06:00 +4°C° 0 mm 1 mps 721 mmHg 80%
    07:00 +4°C° 0 mm 1 mps 722 mmHg 78%
    08:00 +7°C° 0 mm 1 mps 722 mmHg 71%
    09:00 +9°C° 0 mm 1 mps 722 mmHg 64%
    10:00 +11°C° 0 mm 0 mps 722 mmHg 57%
    11:00 +13°C° 0 mm 1 mps 722 mmHg 55%
    12:00 +14°C° 0 mm 1 mps 722 mmHg 53%
    13:00 +15°C° 0 mm 1 mps 722 mmHg 51%
    14:00 +15°C° 0 mm 1 mps 722 mmHg 52%
    15:00 +15°C° 0 mm 1 mps 721 mmHg 53%
    16:00 +15°C° 0 mm 1 mps 721 mmHg 55%
    17:00 +13°C° 0 mm 1 mps 721 mmHg 64%
    18:00 +10°C° 0 mm 1 mps 722 mmHg 73%
    19:00 +8°C° 0 mm 1 mps 722 mmHg 82%
    20:00 +8°C° 0 mm 1 mps 722 mmHg 82%
    21:00 +7°C° 0 mm 1 mps 723 mmHg 81%
    22:00 +6°C° 0 mm 2 mps 723 mmHg 81%
    23:00 +6°C° 0 mm 2 mps 724 mmHg 80%

    5 April, Sunday

    Time Temperature Precipitation Wind Pressure Humidity
    00:00 +5°C° 0 mm 2 mps 724 mmHg 79%
    01:00 +5°C° 0 mm 2 mps 724 mmHg 78%
    02:00 +5°C° 0 mm 2 mps 724 mmHg 78%
    03:00 +5°C° 0 mm 2 mps 724 mmHg 78%
    04:00 +4°C° 0 mm 2 mps 724 mmHg 79%
    05:00 +5°C° 0 mm 2 mps 724 mmHg 77%
    06:00 +5°C° 0 mm 2 mps 724 mmHg 76%
    07:00 +6°C° 0 mm 2 mps 724 mmHg 75%
    08:00 +8°C° 0 mm 2 mps 724 mmHg 69%
    09:00 +12°C° 0 mm 1 mps 724 mmHg 62%
    10:00 +14°C° 0 mm 1 mps 724 mmHg 55%
    11:00 +15°C° 0 mm 1 mps 723 mmHg 52%
    12:00 +18°C° 0 mm 1 mps 723 mmHg 49%
    13:00 +19°C° 0 mm 1 mps 723 mmHg 46%
    14:00 +19°C° 0 mm 1 mps 723 mmHg 47%
    15:00 +19°C° 0 mm 1 mps 722 mmHg 48%
    16:00 +19°C° 0 mm 1 mps 722 mmHg 49%
    17:00 +16°C° 0 mm 1 mps 722 mmHg 59%
    18:00 +13°C° 0 mm 1 mps 722 mmHg 69%
    19:00 +11°C° 0 mm 1 mps 722 mmHg 79%
    20:00 +9°C° 0 mm 2 mps 722 mmHg 78%
    21:00 +8°C° 0 mm 2 mps 722 mmHg 78%
    22:00 +7°C° 0 mm 2 mps 723 mmHg 77%
    23:00 +7°C° 0 mm 2 mps 723 mmHg 77%

    6 April, Monday

    Time Temperature Precipitation Wind Pressure Humidity
    00:00 +7°C° 0 mm 3 mps 723 mmHg 76%
    01:00 +5°C° 0 mm 3 mps 723 mmHg 76%
    02:00 +6°C° 0 mm 2 mps 723 mmHg 75%
    03:00 +6°C° 0 mm 2 mps 723 mmHg 74%
    04:00 +5°C° 0 mm 2 mps 723 mmHg 74%
    05:00 +6°C° 0 mm 2 mps 723 mmHg 71%
    06:00 +6°C° 0 mm 2 mps 723 mmHg 68%
    07:00 +7°C° 0 mm 2 mps 723 mmHg 66%
    08:00 +9°C° 0 mm 2 mps 723 mmHg 58%
    09:00 +13°C° 0 mm 2 mps 723 mmHg 50%
    10:00 +16°C° 0 mm 1 mps 723 mmHg 42%
    11:00 +18°C° 0 mm 1 mps 723 mmHg 39%
    12:00 +19°C° 0 mm 1 mps 723 mmHg 37%
    13:00 +21°C° 0 mm 1 mps 723 mmHg 35%
    14:00 +20°C° 0 mm 1 mps 723 mmHg 37%
    15:00 +20°C° 0 mm 1 mps 723 mmHg 39%
    16:00 +20°C° 0 mm 1 mps 723 mmHg 41%
    17:00 +18°C° 0 mm 1 mps 723 mmHg 52%
    18:00 +14°C° 0 mm 1 mps 723 mmHg 62%
    19:00 +10°C° 0 mm 0 mps 723 mmHg 73%
    20:00 +11°C° 0 mm 1 mps 724 mmHg 74%
    21:00 +10°C° 0 mm 1 mps 725 mmHg 74%
    22:00 +9°C° 0 mm 2 mps 725 mmHg 74%
    23:00 +9°C° 0 mm 1 mps 726 mmHg 75%

    7 April, Tuesday

    Time Temperature Precipitation Wind Pressure Humidity
    00:00 +9°C° 0 mm 1 mps 726 mmHg 75%
    01:00 +9°C° 0 mm 1 mps 726 mmHg 75%
    02:00 +9°C° 0 mm 1 mps 726 mmHg 76%
    03:00 +8°C° 0 mm 1 mps 726 mmHg 77%
    04:00 +8°C° 0 mm 1 mps 727 mmHg 78%
    05:00 +9°C° 0 mm 1 mps 727 mmHg 78%
    06:00 +9°C° 0 mm 1 mps 727 mmHg 77%
    07:00 +9°C° 0 mm 0 mps 727 mmHg 77%
    08:00 +12°C° 0 mm 1 mps 727 mmHg 71%
    09:00 +14°C° 0 mm 1 mps 727 mmHg 65%
    10:00 +16°C° 0 mm 1 mps 727 mmHg 59%
    11:00 +18°C° 0.1 mm 1 mps 727 mmHg 58%
    12:00 +18°C° 0.1 mm 1 mps 727 mmHg 57%
    13:00 +19°C° 0.1 mm 1 mps 727 mmHg 56%
    14:00 +18°C° 0.1 mm 2 mps 727 mmHg 55%
    15:00 +19°C° 0.1 mm 2 mps 726 mmHg 54%
    16:00 +19°C° 0.1 mm 2 mps 726 mmHg 53%
    17:00 +17°C° 0 mm 2 mps 726 mmHg 62%
    18:00 +15°C° 0 mm 1 mps 726 mmHg 70%
    19:00 +12°C° 0 mm 1 mps 726 mmHg 79%
    20:00 +12°C° 0 mm 1 mps 726 mmHg 80%
    21:00 +11°C° 0 mm 1 mps 726 mmHg 81%
    22:00 +11°C° 0 mm 1 mps 727 mmHg 83%
    23:00 +10°C° 0 mm 1 mps 727 mmHg 82%
    Show more